Date String (YYYY-MM-DD hh:mm:ss) UTC,Instrument flags,Ambient pressure (hPa),Sample flow (lpm),Bypass flow (lpm),Sample temperature (°C),Ambient temperature (°C),ASC tube jacket temperature (°C),LED temperature (°C),Box temperature (°C),Sample RH (%),Span deviation,Mass concentration (μg/m³),Mass concentration (μg/m³),Mass concentration (μg/m³)
DateTimeUTC,F1_M11,P_M11,Q1_M11,Q2_M11,T1_M11,T2_M11,T3_M11,T4_M11,T5_M11,U1_M11,ZSPAN_M11,X0_M11,X2_M11,X1_M11
2023-04-13 02:00:00,,0819.7,5.01,0.00,30.1,28.6,00.0,38.4,31.7,10.4,0000.0,0009.83,0003.22,0002.12
2023-04-13 02:01:00,,0819.8,4.99,0.00,30.1,28.6,00.0,38.4,31.7,10.4,0000.0,0009.55,0003.15,0002.10
2023-04-13 02:02:00,,0819.6,5.00,0.00,30.1,28.6,00.0,38.4,31.7,10.3,0000.0,0008.90,0003.12,0002.08
2023-04-13 02:03:00,,0819.5,5.00,0.00,30.1,28.6,00.0,38.4,31.7,10.2,0000.0,0008.75,0003.10,0002.10
2023-04-13 02:04:00,,0819.9,5.00,0.00,30.1,28.6,00.0,38.5,31.7,10.2,0000.0,0008.89,0003.12,0002.12
2023-04-13 02:05:00,,0819.9,4.98,0.00,30.1,28.6,00.0,38.5,31.7,10.2,0000.0,0008.93,0003.13,0002.11
2023-04-13 02:06:00,,0820.0,5.00,0.00,30.1,28.6,00.0,38.5,31.7,10.2,0000.0,0008.54,0003.11,0002.11
2023-04-13 02:07:00,,0819.9,5.01,0.00,30.1,28.6,00.0,38.5,31.7,10.2,0000.0,0008.56,0003.14,0002.09
2023-04-13 02:08:00,,0820.1,5.01,0.00,30.1,28.7,00.0,38.5,31.7,10.3,0000.0,0008.68,0003.14,0002.07
2023-04-13 02:09:00,,0820.2,5.00,0.00,30.1,28.6,00.0,38.5,31.7,10.3,0000.0,0008.19,0003.08,0002.05
2023-04-13 02:10:00,,0819.8,4.99,0.00,30.2,28.6,00.0,38.5,31.7,10.3,0000.0,0007.38,0003.00,0002.04
2023-04-13 02:11:00,,0819.7,5.00,0.00,30.2,28.6,00.0,38.5,31.7,10.2,0000.0,0007.30,0002.92,0002.02
2023-04-13 02:12:00,,0820.0,5.01,0.00,30.2,28.6,00.0,38.5,31.8,10.1,0000.0,0007.49,0002.93,0002.03
2023-04-13 02:13:00,,0819.9,5.01,0.00,30.1,28.7,00.0,38.5,31.7,10.1,0000.0,0008.40,0002.98,0002.03
2023-04-13 02:14:00,,0820.0,5.00,0.00,30.2,28.7,00.0,38.5,31.7,10.1,0000.0,0008.21,0002.96,0002.02
2023-04-13 02:15:00,,0820.0,4.99,0.00,30.2,28.6,00.0,38.5,31.8,10.2,0000.0,0007.70,0002.91,0002.00
2023-04-13 02:16:00,,0820.1,4.99,0.00,30.2,28.7,00.0,38.5,31.8,10.2,0000.0,0007.95,0002.90,0001.98
2023-04-13 02:17:00,,0819.8,4.99,0.00,30.2,28.7,00.0,38.5,31.7,10.1,0000.0,0008.16,0002.95,0001.99
2023-04-13 02:18:00,,0820.0,4.98,0.00,30.2,28.7,00.0,38.5,31.8,10.1,0000.0,0008.48,0002.99,0002.01
2023-04-13 02:19:00,,0820.1,5.00,0.00,30.2,28.7,00.0,38.5,31.8,10.1,0000.0,0009.56,0003.00,0002.00
2023-04-13 02:20:00,,0819.9,5.00,0.00,30.2,28.7,00.0,38.5,31.8,10.1,0000.0,0009.31,0003.01,0002.02
2023-04-13 02:21:00,,0819.7,5.00,0.00,30.2,28.7,00.0,38.5,31.7,10.1,0000.0,0009.64,0003.06,0002.02
2023-04-13 02:22:00,,0820.1,4.99,0.00,30.2,28.7,00.0,38.6,31.8,10.1,0000.0,0010.08,0003.11,0002.03
2023-04-13 02:23:00,,0820.0,4.99,0.00,30.2,28.7,00.0,38.6,31.8,10.0,0000.0,0010.10,0003.14,0002.04
2023-04-13 02:24:00,,0819.9,5.01,0.00,30.2,28.7,00.0,38.6,31.7,10.0,0000.0,0009.59,0003.12,0002.04
2023-04-13 02:25:00,,0819.8,5.01,0.00,30.2,28.6,00.0,38.6,31.7,10.0,0000.0,0009.12,0003.11,0002.05
2023-04-13 02:26:00,,0819.7,5.00,0.00,30.2,28.6,00.0,38.6,31.7,10.0,0000.0,0009.07,0003.12,0002.07
2023-04-13 02:27:00,,0819.7,4.99,0.00,30.2,28.6,00.0,38.6,31.7,10.0,0000.0,0009.03,0003.14,0002.09
2023-04-13 02:28:00,,0819.8,5.00,0.00,30.2,28.6,00.0,38.6,31.7,10.0,0000.0,0008.69,0003.12,0002.09
2023-04-13 02:29:00,,0819.8,5.01,0.00,30.2,28.6,00.0,38.6,31.8,10.0,0000.0,0008.64,0003.09,0002.09
2023-04-13 02:30:00,,0819.9,5.00,0.00,30.2,28.6,00.0,38.6,31.8,10.1,0000.0,0007.54,0003.05,0002.11
2023-04-13 02:31:00,,0819.8,5.00,0.00,30.2,28.6,00.0,38.6,31.8,10.1,0000.0,0007.76,0003.10,0002.12
2023-04-13 02:32:00,,0819.9,4.98,0.00,30.2,28.6,00.0,38.6,31.7,10.1,0000.0,0007.49,0003.09,0002.12
2023-04-13 02:33:00,,0819.7,4.99,0.00,30.2,28.6,00.0,38.6,31.7,10.2,0000.0,0006.92,0003.07,0002.12
2023-04-13 02:34:00,,0819.8,5.01,0.00,30.2,28.6,00.0,38.6,31.7,10.2,0000.0,0007.35,0003.07,0002.12
2023-04-13 02:35:00,,0819.8,5.01,0.00,30.2,28.6,00.0,38.6,31.8,10.2,0000.0,0008.01,0003.04,0002.13
2023-04-13 02:36:00,,0819.9,4.99,0.00,30.2,28.6,00.0,38.6,31.8,10.2,0000.0,0008.53,0003.12,0002.14
2023-04-13 02:37:00,,0819.8,5.01,0.00,30.2,28.6,00.0,38.6,31.8,10.2,0000.0,0008.58,0003.11,0002.14
2023-04-13 02:38:00,,0819.7,4.99,0.00,30.2,28.6,00.0,38.6,31.8,10.2,0000.0,0008.47,0003.07,0002.14
2023-04-13 02:39:00,,0819.8,5.00,0.00,30.2,28.6,00.0,38.6,31.7,10.2,0000.0,0008.41,0003.10,0002.15
2023-04-13 02:40:00,,0819.7,4.99,0.00,30.2,28.6,00.0,38.6,31.8,10.2,0000.0,0008.32,0003.11,0002.16
2023-04-13 02:41:00,,0819.7,4.99,0.00,30.2,28.6,00.0,38.6,31.8,10.2,0000.0,0008.88,0003.15,0002.14
2023-04-13 02:42:00,,0819.9,4.99,0.00,30.2,28.6,00.0,38.6,31.8,10.3,0000.0,0008.38,0003.13,0002.14
2023-04-13 02:43:00,,0819.9,4.99,0.00,30.2,28.6,00.0,38.6,31.7,10.3,0000.0,0008.59,0003.16,0002.15
2023-04-13 02:44:00,,0819.7,5.00,0.00,30.2,28.6,00.0,38.6,31.8,10.3,0000.0,0009.03,0003.18,0002.16
2023-04-13 02:45:00,,0819.8,5.00,0.00,30.2,28.6,00.0,38.6,31.8,10.3,0000.0,0008.85,0003.20,0002.16
2023-04-13 02:46:00,,0819.9,4.99,0.00,30.2,28.6,00.0,38.6,31.7,10.3,0000.0,0008.61,0003.23,0002.17
2023-04-13 02:47:00,,0819.9,4.99,0.00,30.2,28.6,00.0,38.6,31.7,10.3,0000.0,0008.95,0003.20,0002.17
2023-04-13 02:48:00,,0819.9,5.01,0.00,30.2,28.5,00.0,38.6,31.7,10.3,0000.0,0009.20,0003.22,0002.18
2023-04-13 02:49:00,,0819.9,5.01,0.00,30.2,28.5,00.0,38.6,31.7,10.3,0000.0,0009.31,0003.23,0002.17
2023-04-13 02:50:00,,0820.0,4.99,0.00,30.2,28.5,00.0,38.6,31.7,10.3,0000.0,0009.57,0003.26,0002.17
2023-04-13 02:51:00,,0820.3,4.99,0.00,30.2,28.5,00.0,38.6,31.7,10.3,0000.0,0010.47,0003.28,0002.16
2023-04-13 02:52:00,,0819.9,5.01,0.00,30.2,28.5,00.0,38.6,31.7,10.3,0000.0,0010.02,0003.27,0002.17
2023-04-13 02:53:00,,0819.8,5.01,0.00,30.2,28.6,00.0,38.6,31.7,10.3,0000.0,0010.05,0003.26,0002.17
2023-04-13 02:54:00,,0819.8,5.00,0.00,30.2,28.6,00.0,38.6,31.7,10.3,0000.0,0009.90,0003.26,0002.16
2023-04-13 02:55:00,,0819.9,5.00,0.00,30.2,28.5,00.0,38.6,31.7,10.2,0000.0,0009.59,0003.26,0002.15
2023-04-13 02:56:00,,0819.9,4.99,0.00,30.2,28.5,00.0,38.6,31.7,10.3,0000.0,0009.76,0003.24,0002.14
2023-04-13 02:57:00,,0819.9,4.99,0.00,30.2,28.5,00.0,38.6,31.7,10.4,0000.0,0009.83,0003.23,0002.14
2023-04-13 02:58:00,,0820.0,5.00,0.00,30.2,28.5,00.0,38.6,31.7,10.4,0000.0,0009.15,0003.24,0002.14
2023-04-13 02:59:00,,0819.9,5.00,0.00,30.2,28.5,00.0,38.6,31.7,10.4,0000.0,0009.34,0003.22,0002.14
